DAL4902 KLGA-KLIT

Flight info

Callsign DAL4902
Flight time N/A
Altitude 34000
Route LANNA J48 CSN FANPO Q40 OJESS/N0462F360 Q40 JAARE SALMS CRAMM XESSS J14 LIT
Aircraft A320/M-SDE3FGHIRWY/LB1

Departure

Time N/A
Airport LaGuardia Airport (KLGA)

Arrival

Time 2026-04-17 02:50
Airport Bill & Hillary Clinton National Airport/Adams Field (KLIT)
Time Latitude Longitude Altitude Speed Heading
2026-04-17 00:27 39.58632 -76.80374 35854 ft 379 kts 237°
2026-04-17 00:27 39.57139 -76.83241 35851 ft 379 kts 237°
2026-04-17 00:28 39.54204 -76.88866 35855 ft 379 kts 237°
2026-04-17 00:28 39.51243 -76.94522 35854 ft 379 kts 237°
2026-04-17 00:29 39.47825 -76.99645 35853 ft 383 kts 223°
2026-04-17 00:29 39.43674 -77.04001 35854 ft 384 kts 223°
2026-04-17 00:30 39.39532 -77.08354 35854 ft 384 kts 223°
2026-04-17 00:30 39.35393 -77.12705 35863 ft 384 kts 223°
2026-04-17 00:31 39.31244 -77.17066 35863 ft 384 kts 223°
2026-04-17 00:31 39.27095 -77.21407 35861 ft 384 kts 223°
2026-04-17 00:32 39.22945 -77.25742 35860 ft 384 kts 223°
2026-04-17 00:32 39.18803 -77.30070 35860 ft 384 kts 223°
2026-04-17 00:33 39.14683 -77.34368 35859 ft 384 kts 223°
2026-04-17 00:33 39.10532 -77.38685 35849 ft 384 kts 223°
2026-04-17 00:34 39.06383 -77.43003 35846 ft 383 kts 223°
2026-04-17 00:34 39.02233 -77.47311 35830 ft 383 kts 223°
2026-04-17 00:35 38.98079 -77.51611 35827 ft 383 kts 223°
2026-04-17 00:35 38.93928 -77.55898 35830 ft 383 kts 223°
2026-04-17 00:36 38.89782 -77.60187 35831 ft 383 kts 223°
2026-04-17 00:36 38.85637 -77.64478 35837 ft 383 kts 223°
2026-04-17 00:37 38.81478 -77.68754 35849 ft 383 kts 223°
2026-04-17 00:37 38.77347 -77.73000 35848 ft 383 kts 223°
2026-04-17 00:38 38.73164 -77.77291 35858 ft 383 kts 223°
2026-04-17 00:38 38.69040 -77.81517 35859 ft 383 kts 223°
2026-04-17 00:39 38.64874 -77.85822 35856 ft 381 kts 226°
2026-04-17 00:39 38.61503 -77.90958 35858 ft 376 kts 235°
2026-04-17 00:40 38.58364 -77.96259 35858 ft 376 kts 235°
2026-04-17 00:40 38.55177 -78.01627 35858 ft 377 kts 235°
2026-04-17 00:41 38.52007 -78.06948 35856 ft 377 kts 235°
2026-04-17 00:41 38.48832 -78.12259 35857 ft 376 kts 235°
2026-04-17 00:42 38.45654 -78.17581 35860 ft 376 kts 235°
2026-04-17 00:42 38.42491 -78.22894 35863 ft 376 kts 237°
2026-04-17 00:43 38.39719 -78.28527 35867 ft 375 kts 239°
2026-04-17 00:43 38.36973 -78.34179 35869 ft 375 kts 239°
2026-04-17 00:44 38.34254 -78.39749 35874 ft 375 kts 239°
2026-04-17 00:44 38.31484 -78.45421 35876 ft 375 kts 239°
2026-04-17 00:45 38.28735 -78.51032 35877 ft 375 kts 239°
2026-04-17 00:45 38.25974 -78.56658 35876 ft 375 kts 239°
2026-04-17 00:46 38.23214 -78.62277 35875 ft 375 kts 239°
2026-04-17 00:46 38.20450 -78.67893 35916 ft 374 kts 239°
2026-04-17 00:47 38.17687 -78.73503 35922 ft 375 kts 239°
2026-04-17 00:47 38.14939 -78.79058 35928 ft 374 kts 239°
2026-04-17 00:48 38.12637 -78.83711 35929 ft 374 kts 239°
2026-04-17 00:48 38.09867 -78.89307 35928 ft 374 kts 239°
2026-04-17 00:49 38.07098 -78.94891 35927 ft 374 kts 239°
2026-04-17 00:49 38.04323 -79.00468 35921 ft 374 kts 239°
2026-04-17 00:50 38.01540 -79.06038 35921 ft 374 kts 239°
2026-04-17 00:50 37.98762 -79.11607 35961 ft 374 kts 239°
2026-04-17 00:51 37.95984 -79.17172 36020 ft 373 kts 239°
2026-04-17 00:51 37.93211 -79.22730 36069 ft 373 kts 239°
2026-04-17 00:52 37.90428 -79.28279 36126 ft 373 kts 239°
2026-04-17 00:52 37.87640 -79.33818 36174 ft 373 kts 239°
2026-04-17 00:53 37.84865 -79.39307 36197 ft 373 kts 239°
2026-04-17 00:53 37.82071 -79.44826 36196 ft 372 kts 239°
2026-04-17 00:54 37.79280 -79.50344 36197 ft 372 kts 239°
2026-04-17 00:54 37.76489 -79.55843 36175 ft 372 kts 239°
2026-04-17 00:55 37.73695 -79.61342 36129 ft 372 kts 239°
2026-04-17 00:55 37.70901 -79.66835 36079 ft 372 kts 239°
2026-04-17 00:56 37.68101 -79.72322 36035 ft 371 kts 239°
2026-04-17 00:56 37.65302 -79.77799 35974 ft 371 kts 239°
2026-04-17 00:57 37.62500 -79.83275 35964 ft 371 kts 239°
2026-04-17 00:57 37.59695 -79.88735 35965 ft 371 kts 239°
2026-04-17 00:58 37.56891 -79.94191 35966 ft 371 kts 239°
2026-04-17 00:58 37.54086 -79.99644 35969 ft 371 kts 239°
2026-04-17 00:59 37.51282 -80.05090 35972 ft 370 kts 239°
2026-04-17 00:59 37.48474 -80.10521 35972 ft 370 kts 239°
2026-04-17 01:00 37.45703 -80.15880 35973 ft 370 kts 239°
2026-04-17 01:00 37.42900 -80.21305 35971 ft 370 kts 239°
2026-04-17 01:01 37.40094 -80.26706 36016 ft 370 kts 238°
2026-04-17 01:01 37.37275 -80.32125 36038 ft 370 kts 238°
2026-04-17 01:02 37.34462 -80.37533 36048 ft 369 kts 238°
2026-04-17 01:02 37.31649 -80.42937 36064 ft 369 kts 238°
2026-04-17 01:03 37.28833 -80.48325 36075 ft 369 kts 238°
2026-04-17 01:03 37.26066 -80.53713 36069 ft 369 kts 240°
2026-04-17 01:04 37.23416 -80.59268 36043 ft 369 kts 241°
2026-04-17 01:04 37.20824 -80.64768 36050 ft 369 kts 240°
2026-04-17 01:05 37.18193 -80.70279 36047 ft 369 kts 240°
2026-04-17 01:05 37.15541 -80.75777 36046 ft 368 kts 240°
2026-04-17 01:06 37.12880 -80.81270 36042 ft 368 kts 240°
2026-04-17 01:06 37.10228 -80.86753 36031 ft 368 kts 240°
2026-04-17 01:07 37.07567 -80.92234 36021 ft 368 kts 240°
2026-04-17 01:07 37.04909 -80.97710 36015 ft 368 kts 240°
2026-04-17 01:08 37.02252 -81.03183 36029 ft 368 kts 240°
2026-04-17 01:08 36.99591 -81.08649 36050 ft 367 kts 240°
2026-04-17 01:09 36.96930 -81.14099 36074 ft 367 kts 240°
2026-04-17 01:09 36.94270 -81.19552 36093 ft 367 kts 240°
2026-04-17 01:10 36.91609 -81.24998 36111 ft 367 kts 240°
2026-04-17 01:10 36.88938 -81.30444 36111 ft 367 kts 240°
2026-04-17 01:11 36.86266 -81.35877 36114 ft 367 kts 240°
2026-04-17 01:11 36.83594 -81.41308 36114 ft 367 kts 240°
2026-04-17 01:12 36.80921 -81.46739 36100 ft 367 kts 240°
2026-04-17 01:12 36.78243 -81.52165 36081 ft 367 kts 240°
2026-04-17 01:13 36.75564 -81.57584 36065 ft 367 kts 240°
2026-04-17 01:13 36.72888 -81.62999 36048 ft 367 kts 240°
2026-04-17 01:14 36.70158 -81.68378 36042 ft 367 kts 240°
2026-04-17 01:14 36.67411 -81.73699 36052 ft 368 kts 239°
2026-04-17 01:15 36.64625 -81.79092 36069 ft 368 kts 240°
2026-04-17 01:15 36.61883 -81.84410 36079 ft 367 kts 240°
2026-04-17 01:16 36.59138 -81.89754 36088 ft 367 kts 240°
2026-04-17 01:16 36.56375 -81.95115 36092 ft 367 kts 240°
2026-04-17 01:17 36.53612 -82.00450 36092 ft 367 kts 240°
2026-04-17 01:17 36.50860 -82.05772 36081 ft 366 kts 240°
2026-04-17 01:18 36.48101 -82.11109 36070 ft 366 kts 240°
2026-04-17 01:18 36.45338 -82.16428 36066 ft 366 kts 240°
2026-04-17 01:19 36.42568 -82.21745 36073 ft 366 kts 240°
2026-04-17 01:19 36.39797 -82.27058 36078 ft 367 kts 240°
2026-04-17 01:20 36.37025 -82.32370 36076 ft 367 kts 240°
2026-04-17 01:20 36.34256 -82.37686 36074 ft 367 kts 240°
2026-04-17 01:21 36.31475 -82.42997 36069 ft 367 kts 240°
2026-04-17 01:21 36.28696 -82.48300 36067 ft 367 kts 240°
2026-04-17 01:22 36.25915 -82.53604 36068 ft 367 kts 240°
2026-04-17 01:22 36.23126 -82.58903 36077 ft 367 kts 240°
2026-04-17 01:23 36.20331 -82.64205 36089 ft 367 kts 240°
2026-04-17 01:23 36.17535 -82.69496 36098 ft 367 kts 240°
2026-04-17 01:24 36.14745 -82.74787 36100 ft 368 kts 240°
2026-04-17 01:24 36.11944 -82.80081 36095 ft 367 kts 240°
2026-04-17 01:25 36.09145 -82.85365 36093 ft 367 kts 240°
2026-04-17 01:25 36.06368 -82.90620 36085 ft 368 kts 240°
2026-04-17 01:26 36.03561 -82.95902 36077 ft 368 kts 240°
2026-04-17 01:26 36.00749 -83.01179 36075 ft 368 kts 240°
2026-04-17 01:27 35.97931 -83.06470 36068 ft 368 kts 240°
2026-04-17 01:27 35.95113 -83.11739 36067 ft 368 kts 240°
2026-04-17 01:28 35.92281 -83.17024 36076 ft 369 kts 240°
2026-04-17 01:28 35.89532 -83.22353 36085 ft 368 kts 242°
2026-04-17 01:29 35.85596 -83.30472 36087 ft 368 kts 242°
2026-04-17 01:30 35.82959 -83.35871 36093 ft 368 kts 242°
2026-04-17 01:30 35.80291 -83.41254 36100 ft 368 kts 242°
2026-04-17 01:31 35.77626 -83.46620 36102 ft 368 kts 242°
2026-04-17 01:31 35.74951 -83.52006 36095 ft 368 kts 243°
2026-04-17 01:32 35.73105 -83.57791 36088 ft 363 kts 256°
2026-04-17 01:32 35.71839 -83.63817 36086 ft 364 kts 256°
2026-04-17 01:33 35.70558 -83.69835 36075 ft 364 kts 256°
2026-04-17 01:33 35.69260 -83.75862 36069 ft 365 kts 256°
2026-04-17 01:34 35.67966 -83.81895 36066 ft 365 kts 256°
2026-04-17 01:34 35.66890 -83.86908 36069 ft 365 kts 256°
2026-04-17 01:35 35.65589 -83.92947 36065 ft 366 kts 256°
2026-04-17 01:35 35.64286 -83.98990 36067 ft 365 kts 256°
2026-04-17 01:36 35.62976 -84.05027 36070 ft 365 kts 256°
2026-04-17 01:36 35.61665 -84.11054 36070 ft 365 kts 256°
2026-04-17 01:37 35.60355 -84.17088 36075 ft 365 kts 256°
2026-04-17 01:37 35.59039 -84.23102 36072 ft 365 kts 256°
2026-04-17 01:38 35.57718 -84.29133 36076 ft 365 kts 256°
2026-04-17 01:38 35.56395 -84.35168 36079 ft 366 kts 256°
2026-04-17 01:39 35.55067 -84.41199 36079 ft 366 kts 256°
2026-04-17 01:39 35.53745 -84.47186 36078 ft 366 kts 256°
2026-04-17 01:40 35.52412 -84.53215 36071 ft 366 kts 256°
2026-04-17 01:40 35.51076 -84.59245 36094 ft 366 kts 256°
2026-04-17 01:41 35.49739 -84.65272 36093 ft 366 kts 256°
2026-04-17 01:41 35.48395 -84.71296 36083 ft 366 kts 256°
2026-04-17 01:42 35.47045 -84.77309 36082 ft 366 kts 256°
2026-04-17 01:42 35.45701 -84.83318 36075 ft 365 kts 256°
2026-04-17 01:43 35.44356 -84.89321 36057 ft 365 kts 256°
2026-04-17 01:43 35.43000 -84.95337 36056 ft 366 kts 256°
2026-04-17 01:44 35.41640 -85.01346 36056 ft 366 kts 256°
2026-04-17 01:44 35.40282 -85.07357 36058 ft 366 kts 256°
2026-04-17 01:45 35.38921 -85.13359 36054 ft 365 kts 256°
2026-04-17 01:45 35.37559 -85.19351 36062 ft 365 kts 257°
2026-04-17 01:46 35.36194 -85.25332 36063 ft 365 kts 256°
2026-04-17 01:46 35.34824 -85.31319 36071 ft 365 kts 257°
2026-04-17 01:47 35.33455 -85.37313 36068 ft 365 kts 256°
2026-04-17 01:47 35.32084 -85.43293 36066 ft 365 kts 256°
2026-04-17 01:48 35.30707 -85.49270 36071 ft 365 kts 256°
2026-04-17 01:48 35.29319 -85.55245 36068 ft 365 kts 256°
2026-04-17 01:49 35.27941 -85.61182 36070 ft 365 kts 256°
2026-04-17 01:49 35.26547 -85.67199 36076 ft 365 kts 257°
2026-04-17 01:50 35.25157 -85.73167 36082 ft 365 kts 256°
2026-04-17 01:50 35.23775 -85.79099 36087 ft 365 kts 257°
2026-04-17 01:51 35.22386 -85.85067 36095 ft 365 kts 257°
2026-04-17 01:51 35.20992 -85.91033 36099 ft 365 kts 256°
2026-04-17 01:52 35.19613 -85.97008 36100 ft 364 kts 260°
2026-04-17 01:52 35.19266 -86.03146 36101 ft 362 kts 268°
2026-04-17 01:53 35.19060 -86.09302 36101 ft 363 kts 268°
2026-04-17 01:53 35.18850 -86.15459 36104 ft 363 kts 268°
2026-04-17 01:54 35.18642 -86.21615 36101 ft 363 kts 268°
2026-04-17 01:54 35.18424 -86.27774 36097 ft 363 kts 268°
2026-04-17 01:55 35.18208 -86.33938 36107 ft 363 kts 268°
2026-04-17 01:55 35.18000 -86.40102 36095 ft 363 kts 268°
2026-04-17 01:56 35.17779 -86.46264 36108 ft 363 kts 268°
2026-04-17 01:56 35.17553 -86.52438 36114 ft 364 kts 268°
2026-04-17 01:57 35.17323 -86.58611 36114 ft 364 kts 268°
2026-04-17 01:57 35.17089 -86.64776 36115 ft 363 kts 268°
2026-04-17 01:58 35.16849 -86.70949 36104 ft 363 kts 268°
2026-04-17 01:58 35.16617 -86.77113 36099 ft 364 kts 268°
2026-04-17 01:59 35.16377 -86.83288 36111 ft 364 kts 268°
2026-04-17 01:59 35.16139 -86.89466 36126 ft 364 kts 268°
2026-04-17 02:00 35.15890 -86.95643 36133 ft 364 kts 268°
2026-04-17 02:00 35.15644 -87.01818 36140 ft 364 kts 268°
2026-04-17 02:01 35.15391 -87.07991 36139 ft 364 kts 268°
2026-04-17 02:01 35.15127 -87.14165 36141 ft 364 kts 268°
2026-04-17 02:02 35.14858 -87.20328 36135 ft 364 kts 268°
2026-04-17 02:02 35.14600 -87.26478 36136 ft 364 kts 268°
2026-04-17 02:03 35.14335 -87.32650 36113 ft 364 kts 268°
2026-04-17 02:03 35.14071 -87.38823 36107 ft 364 kts 268°
2026-04-17 02:04 35.13794 -87.45000 36092 ft 364 kts 268°
2026-04-17 02:04 35.13513 -87.51186 36077 ft 364 kts 268°
2026-04-17 02:05 35.13241 -87.57360 36084 ft 364 kts 268°
2026-04-17 02:05 35.12959 -87.63532 36077 ft 364 kts 268°
2026-04-17 02:06 35.12680 -87.69698 36082 ft 364 kts 268°
2026-04-17 02:06 35.12394 -87.75865 36075 ft 363 kts 268°
2026-04-17 02:07 35.12112 -87.82028 36077 ft 363 kts 268°
2026-04-17 02:07 35.11818 -87.88185 36089 ft 363 kts 268°
2026-04-17 02:08 35.11501 -87.94330 36095 ft 363 kts 268°
2026-04-17 02:08 35.11206 -88.00471 36091 ft 362 kts 268°
2026-04-17 02:09 35.10915 -88.06613 36100 ft 362 kts 268°
2026-04-17 02:09 35.10606 -88.12741 36115 ft 361 kts 268°
2026-04-17 02:10 35.10293 -88.18867 36114 ft 361 kts 268°
2026-04-17 02:10 35.09987 -88.24986 36112 ft 361 kts 268°
2026-04-17 02:11 35.09672 -88.31088 36111 ft 360 kts 268°
2026-04-17 02:11 35.09347 -88.37191 36104 ft 360 kts 268°
2026-04-17 02:12 35.09037 -88.43293 36125 ft 360 kts 268°
2026-04-17 02:12 35.08725 -88.49348 36121 ft 360 kts 268°
2026-04-17 02:13 35.08389 -88.55484 36118 ft 360 kts 268°
2026-04-17 02:13 35.08061 -88.61574 36108 ft 360 kts 268°
2026-04-17 02:14 35.07731 -88.67619 36082 ft 359 kts 268°
2026-04-17 02:14 35.07393 -88.73747 36081 ft 359 kts 268°
2026-04-17 02:15 35.07069 -88.79789 36074 ft 359 kts 268°
2026-04-17 02:15 35.06737 -88.85875 36068 ft 359 kts 268°
2026-04-17 02:16 35.06395 -88.91954 36066 ft 359 kts 268°
2026-04-17 02:16 35.06048 -88.98035 36065 ft 359 kts 268°
2026-04-17 02:17 35.05703 -89.04112 36065 ft 359 kts 268°
2026-04-17 02:17 35.05351 -89.10193 36061 ft 359 kts 268°
2026-04-17 02:18 35.04993 -89.16274 36057 ft 359 kts 268°
2026-04-17 02:18 35.04633 -89.22359 36053 ft 360 kts 268°
2026-04-17 02:19 35.04278 -89.28412 36053 ft 360 kts 268°
2026-04-17 02:19 35.03915 -89.34509 36054 ft 360 kts 268°
2026-04-17 02:20 35.03548 -89.40607 36043 ft 361 kts 267°
2026-04-17 02:20 35.03174 -89.46719 36048 ft 361 kts 267°
2026-04-17 02:21 35.02802 -89.52826 36055 ft 361 kts 267°
2026-04-17 02:21 35.02486 -89.57904 36043 ft 361 kts 267°
2026-04-17 02:22 35.02102 -89.64018 36042 ft 361 kts 267°
2026-04-17 02:22 35.01719 -89.70129 36069 ft 361 kts 267°
2026-04-17 02:23 35.01336 -89.76239 36064 ft 361 kts 267°
2026-04-17 02:23 35.00948 -89.82356 36061 ft 362 kts 267°
2026-04-17 02:24 35.00553 -89.88483 36063 ft 362 kts 267°
2026-04-17 02:24 35.00158 -89.94605 36051 ft 362 kts 267°
2026-04-17 02:25 34.99760 -90.00735 36049 ft 363 kts 267°
2026-04-17 02:25 34.99355 -90.06873 36049 ft 363 kts 267°
2026-04-17 02:25 34.99151 -90.09945 35833 ft 364 kts 267°
2026-04-17 02:26 34.98943 -90.13041 34978 ft 368 kts 267°
2026-04-17 02:26 34.98784 -90.15391 34439 ft 369 kts 267°
2026-04-17 02:26 34.98777 -90.15494 34414 ft 369 kts 267°
2026-04-17 02:26 34.98468 -90.18476 30922 ft 391 kts 252°
2026-04-17 02:27 34.97156 -90.21720 28888 ft 435 kts 248°
2026-04-17 02:27 34.95837 -90.24916 28810 ft 408 kts 252°
2026-04-17 02:27 34.95279 -90.28166 28561 ft 384 kts 273°
2026-04-17 02:27 34.95622 -90.31351 28306 ft 378 kts 280°
2026-04-17 02:28 34.96080 -90.34506 28049 ft 376 kts 280°
2026-04-17 02:28 34.96536 -90.37642 27785 ft 375 kts 280°
2026-04-17 02:28 34.96963 -90.40777 27526 ft 375 kts 276°
2026-04-17 02:28 34.97033 -90.43933 27276 ft 375 kts 270°
2026-04-17 02:29 34.96885 -90.47123 27020 ft 375 kts 267°
2026-04-17 02:29 34.96622 -90.50280 26772 ft 375 kts 266°
2026-04-17 02:29 34.96318 -90.53438 26522 ft 374 kts 265°
2026-04-17 02:29 34.96018 -90.56577 26201 ft 370 kts 266°
2026-04-17 02:30 34.95747 -90.59672 25700 ft 365 kts 266°
2026-04-17 02:30 34.95508 -90.62732 25196 ft 361 kts 267°
2026-04-17 02:30 34.95289 -90.65770 24693 ft 358 kts 267°
2026-04-17 02:30 34.95083 -90.68778 24207 ft 356 kts 267°
2026-04-17 02:31 34.94879 -90.71779 23722 ft 354 kts 267°
2026-04-17 02:31 34.94674 -90.74752 23210 ft 351 kts 267°
2026-04-17 02:31 34.94467 -90.77708 22741 ft 348 kts 266°
2026-04-17 02:31 34.94259 -90.80622 22321 ft 343 kts 266°
2026-04-17 02:32 34.94051 -90.83507 21904 ft 339 kts 266°
2026-04-17 02:32 34.93845 -90.86343 21497 ft 335 kts 266°
2026-04-17 02:32 34.93638 -90.89175 21102 ft 333 kts 266°
2026-04-17 02:32 34.93438 -90.91947 20717 ft 332 kts 266°
2026-04-17 02:33 34.93231 -90.94779 20318 ft 331 kts 266°
2026-04-17 02:33 34.93024 -90.97574 19920 ft 330 kts 266°
2026-04-17 02:33 34.92817 -91.00360 19521 ft 330 kts 266°
2026-04-17 02:33 34.92609 -91.03135 19115 ft 329 kts 266°
2026-04-17 02:34 34.92401 -91.05904 18713 ft 328 kts 266°
2026-04-17 02:34 34.92194 -91.08667 18287 ft 327 kts 266°
2026-04-17 02:34 34.91987 -91.11428 17831 ft 326 kts 266°
2026-04-17 02:34 34.91782 -91.14170 17407 ft 325 kts 266°
2026-04-17 02:35 34.91578 -91.16907 16982 ft 324 kts 266°
2026-04-17 02:35 34.91374 -91.19635 16555 ft 322 kts 266°
2026-04-17 02:35 34.90970 -91.25016 15694 ft 321 kts 266°
2026-04-17 02:36 34.90766 -91.27719 15268 ft 320 kts 266°
2026-04-17 02:36 34.90562 -91.30408 14837 ft 319 kts 266°
2026-04-17 02:36 34.90358 -91.33097 14412 ft 318 kts 266°
2026-04-17 02:36 34.90153 -91.35774 13983 ft 317 kts 266°
2026-04-17 02:37 34.89946 -91.38448 13519 ft 316 kts 266°
2026-04-17 02:37 34.89740 -91.41103 13073 ft 314 kts 266°
2026-04-17 02:37 34.89535 -91.43747 12640 ft 312 kts 266°
2026-04-17 02:37 34.89333 -91.46369 12196 ft 310 kts 266°
2026-04-17 02:38 34.89131 -91.48981 11758 ft 309 kts 265°
2026-04-17 02:38 34.88929 -91.51575 11306 ft 307 kts 265°
2026-04-17 02:38 34.88726 -91.54159 10862 ft 306 kts 265°
2026-04-17 02:38 34.88522 -91.56720 10576 ft 300 kts 265°
2026-04-17 02:39 34.88326 -91.59199 10452 ft 288 kts 265°
2026-04-17 02:39 34.88138 -91.61584 10276 ft 279 kts 265°
2026-04-17 02:39 34.87955 -91.63911 10174 ft 275 kts 265°
2026-04-17 02:39 34.87772 -91.66232 10117 ft 275 kts 265°
2026-04-17 02:40 34.87590 -91.68551 10018 ft 275 kts 265°
2026-04-17 02:40 34.87406 -91.70883 9537 ft 281 kts 265°
2026-04-17 02:40 34.87218 -91.73240 9216 ft 277 kts 264°
2026-04-17 02:40 34.87031 -91.75564 8818 ft 275 kts 264°
2026-04-17 02:41 34.86844 -91.77875 8422 ft 274 kts 264°
2026-04-17 02:41 34.86661 -91.80140 8041 ft 272 kts 264°
2026-04-17 02:41 34.86476 -91.82430 7656 ft 271 kts 263°
2026-04-17 02:41 34.86293 -91.84703 7279 ft 269 kts 263°
2026-04-17 02:42 34.86116 -91.86918 6714 ft 265 kts 263°
2026-04-17 02:42 34.85998 -91.89146 6107 ft 262 kts 273°
2026-04-17 02:42 34.86566 -91.91236 5493 ft 264 kts 302°
2026-04-17 02:42 34.87891 -91.92677 5328 ft 250 kts 325°
2026-04-17 02:43 34.89388 -91.93674 4966 ft 242 kts 329°
2026-04-17 02:43 34.90756 -91.94801 4502 ft 235 kts 308°
2026-04-17 02:43 34.91581 -91.96419 4181 ft 226 kts 283°
2026-04-17 02:43 34.91770 -91.98267 3821 ft 219 kts 260°
2026-04-17 02:44 34.91328 -92.00005 3484 ft 213 kts 236°
2026-04-17 02:44 34.90389 -92.01318 3360 ft 201 kts 215°
2026-04-17 02:44 34.89208 -92.02130 3232 ft 192 kts 206°
2026-04-17 02:44 34.88019 -92.02862 3106 ft 190 kts 206°
2026-04-17 02:45 34.86865 -92.03576 2983 ft 189 kts 206°
2026-04-17 02:45 34.85694 -92.04299 2864 ft 188 kts 206°
2026-04-17 02:45 34.84572 -92.05102 2740 ft 189 kts 219°
2026-04-17 02:45 34.83667 -92.06268 2623 ft 189 kts 226°
2026-04-17 02:46 34.82805 -92.07452 2565 ft 181 kts 226°
2026-04-17 02:46 34.82010 -92.08567 2494 ft 167 kts 231°
2026-04-17 02:46 34.81336 -92.09650 2394 ft 155 kts 228°
2026-04-17 02:46 34.80661 -92.10631 2237 ft 148 kts 226°
2026-04-17 02:47 34.80001 -92.11544 2090 ft 141 kts 225°
2026-04-17 02:47 34.79356 -92.12417 1917 ft 138 kts 225°
2026-04-17 02:47 34.78741 -92.13243 1744 ft 137 kts 225°
2026-04-17 02:47 34.78099 -92.14101 1567 ft 136 kts 225°
2026-04-17 02:48 34.77461 -92.14952 1387 ft 136 kts 225°
2026-04-17 02:48 34.76823 -92.15803 1217 ft 136 kts 224°
2026-04-17 02:48 34.76180 -92.16658 1049 ft 138 kts 226°
2026-04-17 02:48 34.75540 -92.17509 883 ft 138 kts 226°
2026-04-17 02:49 34.74881 -92.18376 670 ft 139 kts 225°
2026-04-17 02:49 34.74220 -92.19223 480 ft 138 kts 223°
2026-04-17 02:49 34.73566 -92.20047 321 ft 137 kts 224°
2026-04-17 02:49 34.72928 -92.20850 256 ft 120 kts 226°
2026-04-17 02:50 34.72559 -92.21324 259 ft 41 kts 225°
2026-04-17 02:50 34.72420 -92.21591 258 ft 35 kts 253°
2026-04-17 02:50 34.72479 -92.21685 259 ft 13 kts 27°
2026-04-17 02:50 34.72538 -92.21613 260 ft 13 kts 46°
2026-04-17 02:51 34.72623 -92.21505 259 ft 21 kts 46°
2026-04-17 02:51 34.72731 -92.21367 259 ft 23 kts 45°
2026-04-17 02:51 34.72837 -92.21311 257 ft 14 kts 319°
2026-04-17 02:51 34.72876 -92.21416 259 ft 18 kts 295°
2026-04-17 02:52 34.72937 -92.21578 265 ft 18 kts 292°
2026-04-17 02:52 34.72985 -92.21705 268 ft 16 kts 296°
2026-04-17 02:52 34.73049 -92.21799 267 ft 15 kts 13°
2026-04-17 02:52 34.73144 -92.21799 267 ft 13 kts 323°
2026-04-17 02:53 34.73182 -92.21888 269 ft 11 kts 290°
2026-04-17 02:53 34.73211 -92.21983 268 ft 13 kts 291°
2026-04-17 02:53 34.73188 -92.22066 267 ft 13 kts 204°
2026-04-17 02:53 34.73097 -92.22109 268 ft 14 kts 201°
2026-04-17 02:54 34.73048 -92.22083 268 ft 8 kts 114°
2026-04-17 02:54 34.73038 -92.22054 268 ft 3 kts 111°
2026-04-17 02:54 34.73030 -92.22030 267 ft 0 kts 111°